Location: Dugenta
(41.1333°N, 14.4500°E)
Time: 13:23:40
(UTC+00:00)

USA 234 - Pass Details

Date: 03 March 2021
Orbit: 1102 x 1105 km, 123.0° (Epoch: 13 April)

Event Time Altitude Azimuth Distance (km) Brightness Sun altitude
Exits shadow 19:39:57 28° 25° (NNE) 1,933 4.4 -31.3°
Maximum altitude 19:43:04 48° 329° (NNW) 1,412 4.0 -31.8°
Drops below altitude 10° 19:49:17 10° 257° (WSW) 2,958 6.1 -32.9°
Sets 19:51:50 0° 252° (WSW) 3,914 6.8 -33.4°
